Location: Lac Lasalle
(46.0398°N, 74.1576°W)
Time: 15:18:16
(UTC-05:00)

SEEDS - Pass Details

Date: 16 December 2019
Orbit: 586 x 603 km, 97.5° (Epoch: 28 January)

Event Time Altitude Azimuth Distance (km) Brightness Sun altitude
Rises 17:08:39 0° 176° (S) 2,803 ? -9.5°
Reaches altitude 10° 17:10:49 10° 180° (S) 1,909 ? -9.8°
Maximum altitude 17:14:54 58° 260° (W) 692 ? -10.5°
Drops below altitude 10° 17:19:02 10° 340° (NNW) 1,934 ? -11.1°
Sets 17:21:15 0° 344° (NNW) 2,843 ? -11.5°
